Change the Weather History Date:

Sunday, October 28, 2012

  Actual Average Record
Temperature  
Mean Temperature 52 °F -  
Max Temperature 55 °F - - ()
Min Temperature 48 °F - - ()
Degree Days  
Heating Degree Days 14    
Growing Degree Days 2 (Base 50)    
Moisture  
Dew Point 50 °F    
Average Humidity 92    
Maximum Humidity 96    
Minimum Humidity 86    
Precipitation  
Precipitation 0.02 in - - ()
Sea Level Pressure  
Sea Level Pressure 30.04 in    
Wind  
Wind Speed 16 mph ()    
Max Wind Speed 22 mph    
Max Gust Speed 30 mph    
T = Trace of Precipitation, MM = Missing Value Source: Averaged Metar Reports

Daily Weather History Graph

Daily Weather History Graph

Search for Another Location

Airport or City:

Trip Planner

Search our weather history database for the weather conditions in past years. The results will help you decide how hot, cold, wet, or windy it might be!

Date:

Astronomy

Oct. 28, 2012 Rise Set
Actual Time 7:43 AM NDT 5:54 PM NDT
Civil Twilight 7:12 AM NDT 6:26 PM NDT
Nautical Twilight 6:36 AM NDT 7:02 PM NDT
Astronomical Twilight 6:00 AM NDT 7:37 PM NDT
Moon 5:09 PM NDT (10/28) 6:29 AM NDT (10/28)
Length of Visible Light 11h 14m
Length of Day
10h 10m
Waxing Gibbous, 99% of the Moon is Illuminated
Oct 28
Waxing Gibbous
Oct 29
Full
Nov 6
Last Quarter
Nov 13
New
Nov 20
First Quarter

Hourly Weather History & Observations

Time (NDT) Temp. Dew Point Humidity Pressure Visibility Wind Dir Wind Speed Gust Speed Precip Events Conditions
12:30 AM 49 °F 48 °F 95% 29.91 in - NNE 20.7 mph - -  
12:30 AM 49.3 °F 48.0 °F 95% 29.91 in - NNE 20.7 mph - N/A   Unknown
1:30 AM 48.9 °F 47.7 °F 95% 29.92 in - NNE 19.6 mph - N/A   Unknown
2:30 AM 48.7 °F 47.7 °F 96% 29.93 in - NNE 13.8 mph - 0.02 in   Unknown
3:30 AM 51 °F 50 °F 93% 29.94 in - NNE 12.7 mph - -  
3:30 AM 50.9 °F 49.6 °F 95% 29.94 in - NNE 12.7 mph - N/A   Unknown
4:30 AM 52.0 °F 50.4 °F 94% 29.95 in - NE 13.8 mph - N/A   Unknown
5:30 AM 52.0 °F 50.4 °F 94% 29.96 in - NE 15.0 mph - N/A   Unknown
6:30 AM 52 °F 51 °F 94% 29.96 in - ENE 16.1 mph - -  
6:30 AM 52.3 °F 50.7 °F 94% 29.96 in - ENE 16.1 mph - N/A   Unknown
7:30 AM 52.7 °F 50.7 °F 93% 29.98 in - ENE 18.4 mph - N/A   Unknown
8:30 AM 52.9 °F 50.7 °F 92% 30.01 in - ENE 18.4 mph - N/A   Unknown
9:30 AM 54 °F 51 °F 86% 30.02 in - ENE 19.6 mph - -  
9:30 AM 53.6 °F 51.1 °F 91% 30.02 in - ENE 19.6 mph 26.5 mph N/A   Unknown
10:30 AM 54.0 °F 51.3 °F 91% 30.03 in - ENE 20.7 mph 29.9 mph N/A   Unknown
11:30 AM 53.6 °F 51.3 °F 92% 30.04 in - ENE 20.7 mph 27.6 mph N/A   Unknown
12:30 PM 54 °F 51 °F 87% 30.05 in - ENE 21.9 mph - -  
12:30 PM 54.0 °F 51.3 °F 91% 30.05 in - ENE 21.9 mph - N/A   Unknown
1:30 PM 54.9 °F 51.6 °F 89% 30.05 in - ENE 21.9 mph - N/A   Unknown
2:30 PM 53.2 °F 50.7 °F 91% 30.09 in - NNE 16.1 mph - N/A   Unknown
3:30 PM 55 °F 52 °F 88% 30.08 in - NE 17.3 mph - -  
4:30 PM 54.0 °F 50.7 °F 89% 30.08 in - ENE 18.4 mph - N/A   Unknown
5:30 PM 53.1 °F 50.5 °F 91% 30.11 in - NE 16.1 mph 23.0 mph N/A   Unknown
6:30 PM 52 °F 50 °F 91% 30.14 in - NE 16.1 mph - -  
6:30 PM 52.3 °F 50.2 °F 92% 30.14 in - NE 16.1 mph - N/A   Unknown
7:30 PM 52.7 °F 50.4 °F 92% 30.15 in - ENE 15.0 mph 21.9 mph N/A   Unknown
8:30 PM 52.3 °F 50.4 °F 93% 30.16 in - ENE 15.0 mph - N/A   Unknown
9:30 PM 52 °F 50 °F 92% 30.19 in - NE 12.7 mph - -  
9:30 PM 52.2 °F 50.4 °F 94% 30.19 in - NE 12.7 mph - N/A   Unknown
10:30 PM 51.4 °F 49.6 °F 94% 30.20 in - NNE 12.7 mph - N/A   Unknown
11:30 PM 51.6 °F 50.0 °F 94% 30.22 in - NE 13.8 mph - N/A   Unknown